Indianapolis, IN

11:54 PM EDT on August 29, 2016 (GMT -0400)
Indianapolis International

Weather History for KIND - January, 2013

Change the Weather History Date:

Sunday, January 6, 2013

  Actual Average Record
Temperature  
Mean Temperature 30 °F 28 °F  
Max Temperature 35 °F 35 °F 63 °F (2008)
Min Temperature 25 °F 21 °F -20 °F (1884)
Degree Days  
Heating Degree Days 35 37  
Month to date heating degree days 251 222  
Since 1 July heating degree days 2232 2298  
Cooling Degree Days 0 0  
Month to date cooling degree days 0 0  
Year to date cooling degree days 0 0  
Moisture  
Dew Point 25 °F    
Average Humidity 82    
Maximum Humidity 89    
Minimum Humidity 75    
Precipitation  
Precipitation T in 0.09 in 1.48 in (1888)
Month to date precipitation 0.02 0.59  
Year to date precipitation 0.02 0.59  
Snow  
Snow T in 0.20 in 9.20 in (1969)
Month to date snowfall 0.3 1.6  
Since 1 July snowfall 15.3 9.6  
Snow Depth 3.00 in    
Sea Level Pressure  
Sea Level Pressure 30.16 in    
Wind  
Wind Speed 12 mph (West)    
Max Wind Speed 26 mph    
Max Gust Speed 33 mph    
Visibility 9 miles    
Events      
T = Trace of Precipitation, MM = Missing Value Source: NWS Daily Summary

Daily Weather History Graph

Daily Weather History Graph

Search for Another Location

Airport or City:

Trip Planner

Search our weather history database for the weather conditions in past years. The results will help you decide how hot, cold, wet, or windy it might be!

Date:

Astronomy

Jan. 06, 2013 Rise Set
Actual Time 8:06 AM EST 5:36 PM EST
Civil Twilight 7:36 AM EST 6:06 PM EST
Nautical Twilight 7:02 AM EST 6:39 PM EST
Astronomical Twilight 6:30 AM EST 7:12 PM EST
Moon 2:20 AM EST (1/6) 1:02 PM EST (1/6)
Length of Visible Light 10h 30m
Length of Day
9h 29m
Waning Crescent, 33% of the Moon is Illuminated
Jan 6
Waning Crescent
Jan 11
New
Jan 18
First Quarter
Jan 26
Full
Feb 3
Last Quarter

Hourly Weather History & Observations

Time (EST) Temp. Windchill Dew Point Humidity Pressure Visibility Wind Dir Wind Speed Gust Speed Precip Events Conditions
12:54 AM 34.0 °F 25.5 °F 28.9 °F 82% 30.11 in 10.0 mi SSW 11.5 mph - N/A   Overcast
1:54 AM 34.0 °F 26.6 °F 30.0 °F 85% 30.09 in 10.0 mi SW 9.2 mph - N/A   Overcast
2:54 AM 35.1 °F 27.4 °F 28.9 °F 78% 30.08 in 10.0 mi SW 10.4 mph - N/A   Overcast
3:54 AM 35.1 °F 26.9 °F 30.0 °F 82% 30.07 in 10.0 mi SW 11.5 mph - N/A   Overcast
4:54 AM 35.1 °F 26.4 °F 30.0 °F 82% 30.04 in 10.0 mi SW 12.7 mph - N/A   Overcast
5:54 AM 35.1 °F 26.9 °F 30.0 °F 82% 30.03 in 10.0 mi SW 11.5 mph - N/A   Overcast
6:54 AM 35.1 °F 27.4 °F 30.0 °F 82% 30.03 in 10.0 mi SW 10.4 mph - N/A   Overcast
7:54 AM 35.1 °F 26.9 °F 30.9 °F 85% 30.04 in 10.0 mi SW 11.5 mph - N/A   Overcast
8:54 AM 35.1 °F 26.4 °F 30.9 °F 85% 30.05 in 10.0 mi SW 12.7 mph - N/A   Overcast
9:30 AM 35.6 °F 28.0 °F 30.2 °F 81% 30.03 in 9.0 mi SW 10.4 mph - N/A   Overcast
10:25 AM 30.2 °F 16.8 °F 26.6 °F 86% 30.06 in 7.0 mi WNW 23.0 mph 32.2 mph 0.00 in   Overcast
10:41 AM 30.2 °F 16.5 °F 24.8 °F 80% 30.07 in 7.0 mi West 24.2 mph 29.9 mph 0.00 in   Overcast
10:54 AM 30.0 °F 17.9 °F 25.0 °F 82% 30.10 in 9.0 mi West 18.4 mph - 0.00 in   Overcast
11:10 AM 30.2 °F 17.1 °F 23.0 °F 75% 30.09 in 10.0 mi West 21.9 mph 31.1 mph N/A   Overcast
11:54 AM 28.9 °F 15.1 °F 21.9 °F 75% 30.11 in 10.0 mi West 23.0 mph - N/A   Overcast
12:54 PM 28.4 °F 15.8 °F 23.0 °F 80% 30.09 in 8.0 mi West 18.4 mph - N/A   Overcast
1:54 PM 28.9 °F 16.9 °F 24.1 °F 82% 30.12 in 6.0 mi West 17.3 mph - N/A   Haze
2:54 PM 28.0 °F 16.5 °F 21.0 °F 75% 30.16 in 7.0 mi WNW 15.0 mph - N/A   Overcast
3:54 PM 26.6 °F 15.7 °F 19.4 °F 74% 30.19 in 6.0 mi WNW 12.7 mph - N/A   Haze
4:54 PM 27.0 °F 17.3 °F 21.0 °F 78% 30.25 in 5.0 mi NW 10.4 mph - N/A   Haze
5:54 PM 27.0 °F 19.5 °F 21.0 °F 78% 30.28 in 6.0 mi NW 6.9 mph - N/A   Haze
6:54 PM 26.6 °F 15.2 °F 21.2 °F 80% 30.29 in 8.0 mi West 13.8 mph - N/A   Overcast
7:54 PM 25.0 °F 17.1 °F 19.9 °F 81% 30.34 in 8.0 mi West 6.9 mph - N/A   Mostly Cloudy
8:54 PM 27.0 °F 17.3 °F 21.9 °F 81% 30.36 in 10.0 mi WNW 10.4 mph - N/A   Overcast
9:54 PM 27.0 °F 17.3 °F 21.0 °F 78% 30.37 in 10.0 mi WNW 10.4 mph - N/A   Mostly Cloudy
10:54 PM 25.0 °F 16.3 °F 19.9 °F 81% 30.39 in 10.0 mi WNW 8.1 mph - N/A   Mostly Cloudy
11:54 PM 26.1 °F 17.6 °F 21.0 °F 81% 30.40 in 10.0 mi NW 8.1 mph - N/A   Mostly Cloudy